Weather History for Lumberton, NC

Change the Weather History Date:

Wednesday, November 13, 2013

  Actual Average Record
Temperature  
Mean Temperature 36 °F 55 °F  
Max Temperature 48 °F 68 °F 77 °F (2005)
Min Temperature 24 °F 42 °F 24 °F (2013)
Degree Days  
Heating Degree Days 29 10  
Month to date heating degree days 150 116  
Since 1 July heating degree days 254 248  
Cooling Degree Days 0 0  
Month to date cooling degree days 9 10  
Year to date cooling degree days 1856 1904  
Moisture  
Dew Point 21 °F    
Average Humidity 55    
Maximum Humidity 84    
Minimum Humidity 26    
Precipitation  
Precipitation 0.00 in 0.09 in 0.34 in (2002)
Month to date precipitation 0.60 1.16  
Year to date precipitation 38.33 38.92  
Sea Level Pressure  
Sea Level Pressure 30.48 in    
Wind  
Wind Speed 7 mph (North)    
Max Wind Speed 17 mph    
Max Gust Speed 24 mph    
Visibility 10 miles    
Events      
T = Trace of Precipitation, MM = Missing Value Source: NWS Daily Summary

Daily Weather History Graph

Daily Weather History Graph

Search for Another Location

Airport:

Trip Planner

Search our weather history database for the weather conditions in past years. The results will help you decide how hot, cold, wet, or windy it might be!

Date:

Astronomy

Nov. 13, 2013 Rise Set
Actual Time 6:48 AM EST 5:12 PM EST
Civil Twilight 6:21 AM EST 5:39 PM EST
Nautical Twilight 5:51 AM EST 6:09 PM EST
Astronomical Twilight 5:21 AM EST 6:39 PM EST
Moon 2:50 PM EST (11/13) 2:48 AM EST (11/13)
Length of Visible Light 11h 17m
Length of Day
10h 24m
Waxing Gibbous, 84% of the Moon is Illuminated
Nov 13
Waxing Gibbous
Nov 17
Full
Nov 25
Last Quarter
Dec 2
New
Dec 9
First Quarter

Hourly Weather History & Observations

Time (EST) Temp. Windchill Dew Point Humidity Pressure Visibility Wind Dir Wind Speed Gust Speed Precip Events Conditions
12:54 AM 36.0 °F 30.3 °F 27.0 °F 70% 30.39 in 10.0 mi North 6.9 mph - N/A   Mostly Cloudy
1:54 AM 35.1 °F 26.9 °F 28.0 °F 76% 30.40 in 10.0 mi North 11.5 mph - N/A   Clear
2:54 AM 34.0 °F 26.6 °F 23.0 °F 64% 30.41 in 10.0 mi North 9.2 mph - N/A   Clear
3:54 AM 32.0 °F 23.6 °F 21.9 °F 66% 30.43 in 10.0 mi North 10.4 mph - N/A   Clear
4:54 AM 30.9 °F 23.5 °F 21.0 °F 67% 30.45 in 10.0 mi North 8.1 mph - N/A   Clear
5:54 AM 30.0 °F 23.2 °F 19.9 °F 66% 30.46 in 10.0 mi North 6.9 mph - N/A   Clear
6:54 AM 30.0 °F 23.2 °F 19.0 °F 64% 30.49 in 10.0 mi North 6.9 mph - N/A   Clear
7:54 AM 33.1 °F 27.7 °F 19.9 °F 59% 30.51 in 10.0 mi North 5.8 mph - N/A   Clear
8:54 AM 37.0 °F 28.5 °F 19.9 °F 50% 30.53 in 10.0 mi North 13.8 mph 19.6 mph N/A   Clear
9:54 AM 41.0 °F 33.9 °F 21.0 °F 45% 30.52 in 10.0 mi NNE 12.7 mph 18.4 mph N/A   Clear
10:54 AM 43.0 °F 36.8 °F 18.0 °F 37% 30.52 in 10.0 mi NNE 11.5 mph 20.7 mph N/A   Clear
11:54 AM 44.1 °F 37.4 °F 17.1 °F 34% 30.50 in 10.0 mi NNE 13.8 mph 24.2 mph N/A   Clear
12:54 PM 46.0 °F 41.0 °F 17.1 °F 31% 30.48 in 10.0 mi North 10.4 mph 21.9 mph N/A   Clear
1:54 PM 46.9 °F - 16.0 °F 29% 30.47 in 10.0 mi North 8.1 mph - N/A   Clear
2:54 PM 48.0 °F - 16.0 °F 28% 30.46 in 10.0 mi North 9.2 mph - N/A   Clear
3:54 PM 46.9 °F - 16.0 °F 29% 30.46 in 10.0 mi Variable 6.9 mph - N/A   Clear
4:54 PM 45.0 °F 41.8 °F 17.1 °F 33% 30.47 in 10.0 mi North 5.8 mph - N/A   Clear
5:54 PM 39.9 °F - 18.0 °F 41% 30.49 in 10.0 mi Calm Calm - N/A   Clear
6:54 PM 34.0 °F - 23.0 °F 64% 30.51 in 10.0 mi Calm Calm - N/A   Clear
7:54 PM 30.9 °F - 24.1 °F 76% 30.51 in 10.0 mi Calm Calm - N/A   Clear
8:54 PM 28.9 °F - 23.0 °F 78% 30.51 in 10.0 mi Calm Calm - N/A   Clear
9:54 PM 27.0 °F - 21.9 °F 81% 30.51 in 10.0 mi Calm Calm - N/A   Clear
10:54 PM 26.1 °F - 23.0 °F 88% 30.50 in 10.0 mi Calm Calm - N/A   Clear
11:54 PM 26.1 °F - 23.0 °F 88% 30.49 in 10.0 mi Calm Calm - N/A   Clear